XINGCHI-1 02A

Satellite information

Favourite Embed

Satellite Type and Status

PAYLOADIN ORBIT

Key statistics

Satellite XINGCHI-1 02A at a glance.

Uptime

641

Days in orbit

Revolutions

≈ 14.8

Per day

Orbit

SSO

Sun Synchronous Orbit

Inclination

98.0

Latest

Satellite identification and parameters

Extended collection of information and parameters for XINGCHI-1 02A.

Object identification

Identified? True

Debris? False

Object name: XINGCHI-1 02A

International designator: 2023-187A

Object number (NORAD): 58496

Object ID (CCSDS): 58496

Country: PEOPLES REPUBLIC OF CHINA (PRC)

Current information (Y/N): Y

RCS size: LARGE

Orbital parameters

Period: 97.109 minutes

Inclination: 97.9504 deg

SMA: 6998.397 km

Apoapsis: 628.524 km

Periapsis: 612.0 km

RAAN: 326.8236 deg

Eccentricy: 0.00118056

Argument of periapsis: 3.9301 deg

Mean anomaly: 356.2003 deg

Mean motion: 14.82876244 rev/day

Mean motion (dot): 0.00003233 rev/day2

B* drag term: 0.00040521654 1/REarth

Two-line elements (TLE)

Creation date: Sept. 4, 2025, 10:13 a.m.

Reference frame: TEME

Reference center: EARTH

Epoch: Sept. 4, 2025, 6:03 a.m. UTC

TLE line 0: 0 XINGCHI-1 02A

TLE line 1: 1 58496U 23187A 25247.25229152 .00003233 00000-0 40522-3 0 9998

TLE line 2: 2 58496 97.9504 326.8236 0011806 3.9301 356.2003 14.82876244 94727

Live tracking on map

Real-time ground track for satellite XINGCHI-1 02A.

In-orbit conjunctions

There are no conjunctions computed for XINGCHI-1 02A, at the moment. Check back to stay up to date, as we update our databases every day.

Go to all conjunctions

Associated space launch

MisrSat-2 is an Earth observation satellite for the Egyptian Space Agency built by China, with participation from Egyptian engineers and scientists offering opportunity to acquire on-the-project experience in satellite design and integration from China, using facilities available in Egypt. Also riding on this launch is Starpool-02A/B, multi-purpose communication, remote sensing and navigation enhancement satellites from Beijing based ELLIPSPACE.

XINGCHI-1 02A was lifted into orbit during the mission ‘Long March 2C | MisrSat-2’, on board a Long March 2 space rocket.

The launch took place on Dec. 4, 2023, 4:10 a.m. from Launch Area 4 (SLS-2 / 603).

For more information about the launch, click the button.

Launch to space Long March 2C | MisrSat-2
Long March 2C | MisrSat-2

Agency: N/A

Status: Launch Successful

Launch date: Dec. 4, 2023, 4:10 a.m. UTC

Rocket: Long March 2

Launch pad: Launch Area 4 (SLS-2 / 603)

Location: Jiuquan Satellite Launch Center, People's Republic of China

...

Latest news about this satellite

There are no fresh news available about this satellite. Check back as we update our databases every day.


Newsletter sign-up

Weekly statistics, charts and insights to help you stay on top of the space industry.